Location: LDNL
(36.4545°S, 141.6685°E)
Time: 19:06:04
(UTC+10:00)

A-11 Canister half - Pass Details

Date: 06 February 2022
Orbit: 1527 x 1682 km, 47.3° (Epoch: 20 May)

Event Time Altitude Azimuth Distance (km) Brightness Sun altitude
Rises 02:19:30 0° 242° (WSW) 4,944 11.9 -37.2°
Reaches altitude 10° 02:22:49 10° 238° (WSW) 3,945 11.3 -37.1°
Maximum altitude 02:32:46 57° 160° (SSE) 1,893 9.5 -36.7°
Drops below altitude 10° 02:42:23 10° 82° (E) 3,823 11.1 -36.2°
Sets 02:45:32 0° 77° (ENE) 4,783 11.6 -36.0°
